This is the latest recevied weather packets stored in our database for station/object KD8NVS-13. If no packets are shown the sender has not sent any weather packets the latest 10 day(s).
| Time | Temp. | Humidity | Pressure | Rain* | Wind** | Luminosity | Snow |
|---|---|---|---|---|---|---|---|
| 1778087095 | 13.89° C | 51% | 1002.1 hPa | 0 mm | - | 84 W/m² | - |
| 1778086788 | 13.89° C | 52% | 1002.1 hPa | 0 mm | - | 84 W/m² | - |
| 1778086486 | 13.89° C | 55% | 1002.5 hPa | 0 mm | - | 82 W/m² | - |
| 1778086177 | 13.89° C | 54% | 1002.5 hPa | 0 mm | - | 164 W/m² | - |
| 1778085874 | 13.33° C | 57% | 1002.8 hPa | 0 mm | - | 256 W/m² | - |
| 1778085571 | 13.33° C | 59% | 1002.8 hPa | 0 mm | - | 348 W/m² | - |
| 1778085266 | 12.78° C | 60% | 1002.5 hPa | 0 mm | - | 297 W/m² | - |
| 1778084961 | 13.33° C | 62% | 1002.5 hPa | 0 mm | - | 206 W/m² | - |
| 1778084659 | 13.33° C | 60% | 1002.5 hPa | 0 mm | - | 226 W/m² | - |
| 1778084351 | 12.78° C | 62% | 1002.1 hPa | 0 mm | - | 205 W/m² | - |
| 1778084048 | 12.78° C | 60% | 1002.5 hPa | 0 mm | - | 156 W/m² | - |
| 1778083745 | 12.78° C | 65% | 1002.5 hPa | 0 mm | - | 218 W/m² | - |
| 1778083442 | 12.22° C | 67% | 1002.5 hPa | 0 mm | - | 266 W/m² | - |
| 1778083140 | 12.78° C | 68% | 1002.5 hPa | 0 mm | - | 329 W/m² | - |
| 1778082837 | 12.22° C | 69% | 1002.1 hPa | 0 mm | - | 320 W/m² | - |
| 1778081714 | 11.67° C | 70% | 1002.1 hPa | 0 mm | - | 822 W/m² | - |
| 1778081412 | 11.67° C | 70% | 1001.8 hPa | 0 mm | - | 800 W/m² | - |
| 1778081109 | 11.67° C | 73% | 1001.8 hPa | 0 mm | - | 671 W/m² | - |
| 1778080807 | 11.67° C | 73% | 1002.1 hPa | 0 mm | - | 474 W/m² | - |
| 1778080504 | 11.11° C | 74% | 1001.8 hPa | 0 mm | - | 331 W/m² | - |
| 1778080201 | 10.56° C | 76% | 1002.1 hPa | 0 mm | - | 399 W/m² | - |
| 1778079897 | 10.56° C | 77% | 1001.8 hPa | 0 mm | - | 459 W/m² | - |
| 1778079594 | 10.56° C | 76% | 1001.8 hPa | 0 mm | - | 339 W/m² | - |
| 1778079290 | 10.56° C | 78% | 1001.8 hPa | 0 mm | - | 298 W/m² | - |
| 1778078988 | 10.56° C | 81% | 1001.8 hPa | 0 mm | - | 276 W/m² | - |
* Rain latest hour (hover to see other rain measurements)
** Current wind speed in m/s (hover to see current wind gust speed)